{"data":{"norad_id":66220,"epoch":"2026-05-24T23:34:00.046272Z","epoch_age_seconds":80609,"freshness":"FRESH","line1":"1 66220U 25244Q   26144.98194498  .00015404  00000+0  53102-3 0  9999","line2":"2 66220  53.1582 235.2942 0000902  93.2515 266.8589 15.30205646 33344","mean_motion":15.30205646,"eccentricity":9.02e-5,"inclination_deg":53.1582,"raan_deg":235.2942,"arg_perigee_deg":93.2515,"mean_anomaly_deg":266.8589,"bstar":0.00053102,"rev_number":3334,"period_min":94.104998485936,"perigee_km":474.58004069678,"apogee_km":475.81638236894,"semimajor_km":6853.3352115329,"source":"CELESTRAK","updated_at":"2026-05-25T13:38:21.129630Z"}}